2024-167A

Last updated on Fri Oct 04 2024 00:02:04 GMT+0000 (Coordinated Universal Time)

1 61182U 24167A 24276.75482540 -.00000004 00000+0 00000+0 0 9997 2 61182 55.4097 238.3990 0017217 272.9416 86.8160 1.73177102 258
UTC large
Height (km)
Speed (km/s)
/
Latitude / Longitude
Inclination (degrees)
Orbital Period (minutes)
Azimuth
Elevation
Range (km)
Doppler Factor

Next 0 passes for location: London (51.5072 / 0.1276)

Sorry there are no passes over London.